User: anonymous
Location: Caltech
(34.1382°N, 118.1253°W)
Time: 07:06:03
(UTC-07:00)
Language:

SEDSat Delta rocket - Orbit

View from above orbital plane
View from above orbital plane
View from above satellite
View from above satellite

Ground track
Ground track

The orbit data is extracted from the following two-line orbital elements,

1 25510U 98061C   14263.79723347  .00000679  00000-0  10804-3 0  9623
2 25510 031.4363 114.2437 0333195 215.3069 235.1421 14.35874905833331
Epoch (UTC): 20 September 2014 19:08:00
Eccentricity: 0.0333195
inclination: 31.4363°
perigee height: 534 km
apogee height: 1010 km
right ascension of ascending node: 114.2437°
argument of perigee: 215.3069°
revolutions per day: 14.35874905
mean anomaly at epoch: 235.1421°
orbit number at epoch: 83333

The dashed part of the orbit path shows where the satellite is in the earth's shadow,  

DLR